Regional Weather Roundup
Issued by NWS

Home | Current Version | Previous Version | Graphics & Text | Print | Product List | Glossary On
Versions: 1 2 3 4 5 6 7 8 9 10 11 12 13 14 15 16 17 18 19 20 21 22 23 24 25 26 27 28 29 30 31 32 33 34 35 36 37 38 39 40 41 42 43 44 45 46 47 48 49 50
000
ASUS43 KFSD 210902
RWRSD

WEATHER ROUNDUP FOR SOUTH DAKOTA
NATIONAL WEATHER SERVICE SIOUX FALLS SD
400 AM CDT SUN SEP 21 2014

NOTE: "FAIR" INDICATES FEW OR NO CLOUDS BELOW 12,000 FEET WITH NO
SIGNIFICANT WEATHER AND/OR OBSTRUCTIONS TO VISIBILITY.


SDZ001>005-009-010-012>017-211000-
NORTHWEST AND NORTH CENTRAL SOUTH DAKOTA

CITY           SKY/WX    TMP DP  RH WIND       PRES   REMARKS
FAITH            N/A     46  37  71 W8        30.26R
MOBRIDGE       CLEAR     50  44  80 NW8       30.16R
$$

SDZ012>016-024>037-041>051-057-063-072>074-211000-
SOUTHWEST AND SOUTH CENTRAL SOUTH DAKOTA

CITY           SKY/WX    TMP DP  RH WIND       PRES   REMARKS
RAPID CTY ARPT CLEAR     49  37  63 NW9       30.31S
PIERRE         CLEAR     50  43  77 NW9       30.19R
CUSTER         CLEAR     41  32  70 NW6       30.38S
ELLSWORTH AFB  CLEAR     46  37  70 NW5       30.30S
PHILIP         CLEAR     42  37  82 W7        30.26R
PINE RIDGE     CLEAR     37  36  96 CALM      30.31S
WINNER         FAIR      50  38  63 W10       30.22R
$$

SDZ004>011-016>023-039-040-211000-
NORTHEAST SOUTH DAKOTA

CITY           SKY/WX    TMP DP  RH WIND       PRES   REMARKS
ABERDEEN       CLEAR     54  43  66 NW14      30.11R
WATERTOWN      CLEAR     52  45  77 NW14      30.07R
SISSETON         N/A     52  48  86 N10       30.06R
$$

SDZ017-020-022-023-036>040-048>070-211000-
SOUTHEAST SOUTH DAKOTA

CITY           SKY/WX    TMP DP  RH WIND       PRES   REMARKS
SIOUX FALLS    CLEAR     53  43  68 W9        30.08R
HURON          CLEAR     50  40  68 NW9       30.12R
CHAMBERLAIN    CLEAR     52  40  63 NW8       30.18R
MITCHELL       CLEAR     54  42  64 NW9       30.13R
YANKTON        CLEAR     52  43  71 NW8       30.13R
$$

ABBREVIATIONS USED IN REMARKS
   TC - TEMPERATURE IN CELSIUS
  WCI - WIND CHILL INDEX
   HX - HEAT INDEX
  VSB - VISIBILITY




USA.gov is the U.S. government's official web portal to all federal, state and local government web resources and services.